Branson, MO

8:15 AM CDT on June 24, 2017 (GMT -0500)
Branson

Weather History for KBBG - December, 2012

Change the Weather History Date:

Thursday, December 27, 2012

  Actual Average (KHRO) Record (KHRO)
Temperature  
Mean Temperature 29 °F -  
Max Temperature 37 °F 46 °F 75 °F (1971)
Min Temperature 21 °F 29 °F 5 °F (1904)
Degree Days  
Heating Degree Days 36    
Moisture  
Dew Point 21 °F    
Average Humidity 75    
Maximum Humidity 86    
Minimum Humidity 56    
Precipitation  
Precipitation 0.00 in - - ()
Sea Level Pressure  
Sea Level Pressure 30.04 in    
Wind  
Wind Speed 7 mph (SE)    
Max Wind Speed 16 mph    
Max Gust Speed 20 mph    
Visibility 10 miles    
Events      
Averages and records for this station are not official NWS values.
T = Trace of Precipitation, MM = Missing Value Source: NWS Daily Summary

Daily Weather History Graph

Daily Weather History Graph

Search for Another Location

Airport or City:

Trip Planner

Search our weather history database for the weather conditions in past years. The results will help you decide how hot, cold, wet, or windy it might be!

Date:

Astronomy

Dec. 27, 2012 Rise Set
Actual Time 7:23 AM CST 5:04 PM CST
Civil Twilight 6:54 AM CST 5:33 PM CST
Nautical Twilight 6:22 AM CST 6:05 PM CST
Astronomical Twilight 5:51 AM CST 6:37 PM CST
Moon 4:47 PM CST (12/27) 6:35 AM CST (12/27)
Length of Visible Light 10h 38m
Length of Day
9h 41m
Full, 100% of the Moon is Illuminated
Dec 27
Full
Dec 28
Full
Jan 4
Last Quarter
Jan 11
New
Jan 18
First Quarter

Hourly Weather History & Observations

Time (CST) Temp. Windchill Dew Point Humidity Pressure Visibility Wind Dir Wind Speed Gust Speed Precip Events Conditions
12:15 AM 23.0 °F 18.4 °F 17.6 °F 80% 30.12 in 10.0 mi ESE 3.5 mph - N/A   Clear
12:35 AM 23.0 °F 17.0 °F 17.6 °F 80% 30.11 in 10.0 mi East 4.6 mph - N/A   Clear
12:55 AM 23.0 °F - 17.6 °F 80% 30.11 in 10.0 mi Calm Calm - N/A   Clear
1:15 AM 23.0 °F 18.4 °F 17.6 °F 80% 30.12 in 10.0 mi SE 3.5 mph - N/A   Clear
1:35 AM 23.0 °F 18.4 °F 17.6 °F 80% 30.11 in 10.0 mi ESE 3.5 mph - N/A   Clear
1:55 AM 23.0 °F 18.4 °F 17.6 °F 80% 30.11 in 10.0 mi ESE 3.5 mph - N/A   Clear
2:15 AM 23.0 °F 17.0 °F 17.6 °F 80% 30.11 in 10.0 mi ESE 4.6 mph - N/A   Clear
2:35 AM 23.0 °F 17.0 °F 17.6 °F 80% 30.12 in 10.0 mi ESE 4.6 mph - N/A   Clear
2:55 AM 21.2 °F 14.9 °F 17.6 °F 86% 30.12 in 10.0 mi ESE 4.6 mph - N/A   Clear
3:15 AM 21.2 °F 16.4 °F 17.6 °F 86% 30.12 in 10.0 mi East 3.5 mph - N/A   Clear
3:35 AM 21.2 °F - 17.6 °F 86% 30.12 in 10.0 mi Calm Calm - N/A   Clear
3:55 AM 21.2 °F 14.9 °F 17.6 °F 86% 30.11 in 10.0 mi East 4.6 mph - N/A   Clear
4:15 AM 23.0 °F 17.0 °F 17.6 °F 80% 30.11 in 10.0 mi ESE 4.6 mph - N/A   Clear
4:35 AM 21.2 °F 13.6 °F 17.6 °F 86% 30.10 in 10.0 mi ESE 5.8 mph - N/A   Clear
4:55 AM 21.2 °F 14.9 °F 17.6 °F 86% 30.10 in 10.0 mi ESE 4.6 mph - N/A   Clear
5:15 AM 23.0 °F 17.0 °F 17.6 °F 80% 30.11 in 10.0 mi SE 4.6 mph - N/A   Clear
5:35 AM 23.0 °F 17.0 °F 17.6 °F 80% 30.09 in 10.0 mi ESE 4.6 mph - N/A   Clear
6:50 AM 24.8 °F 15.3 °F 17.6 °F 74% 30.08 in 10.0 mi SE 9.2 mph - N/A   Mostly Cloudy
9:50 AM 26.6 °F 15.2 °F 19.4 °F 74% 30.10 in 10.0 mi SE 13.8 mph 19.6 mph N/A   Overcast
10:55 AM 32.0 °F 21.6 °F 21.2 °F 64% 30.09 in 10.0 mi SE 15.0 mph 19.6 mph N/A   Overcast
11:45 AM 33.8 °F 24.8 °F 21.2 °F 60% 30.06 in 10.0 mi SE 12.7 mph 19.6 mph N/A   Overcast
12:45 PM 35.6 °F 27.1 °F 21.2 °F 56% 30.01 in 10.0 mi SSE 12.7 mph 19.6 mph N/A   Overcast
1:45 PM 37.4 °F 30.8 °F 23.0 °F 56% 29.99 in 10.0 mi SE 9.2 mph 17.3 mph N/A   Overcast
2:45 PM 37.4 °F 29.8 °F 23.0 °F 56% 29.98 in 10.0 mi SE 11.5 mph - N/A   Overcast
3:53 PM 35.6 °F 27.5 °F 23.0 °F 60% 29.97 in 10.0 mi SE 11.5 mph - N/A   Overcast
4:45 PM 35.6 °F 27.1 °F 23.0 °F 60% 29.97 in 10.0 mi ESE 12.7 mph - N/A   Overcast
6:45 PM 32.0 °F 23.0 °F 23.0 °F 69% 29.97 in 10.0 mi SE 11.5 mph 17.3 mph N/A   Overcast
7:45 PM 32.0 °F 21.6 °F 23.0 °F 69% 29.97 in 10.0 mi SE 15.0 mph - N/A   Overcast
8:15 PM 32.0 °F 21.6 °F 23.0 °F 69% 29.96 in 10.0 mi SE 15.0 mph - N/A   Partly Cloudy
8:35 PM 32.0 °F 22.5 °F 23.0 °F 69% 29.97 in 10.0 mi SE 12.7 mph - N/A   Scattered Clouds
8:45 PM 32.0 °F 22.1 °F 23.0 °F 69% 29.97 in 10.0 mi SE 13.8 mph - N/A   Overcast
8:55 PM 32.0 °F 22.1 °F 24.8 °F 75% 29.97 in 10.0 mi SE 13.8 mph - N/A   Overcast
9:15 PM 32.0 °F 21.2 °F 24.8 °F 75% 29.97 in 10.0 mi SE 16.1 mph - N/A   Overcast
9:35 PM 30.2 °F 20.8 °F 24.8 °F 80% 29.97 in 10.0 mi SE 11.5 mph - N/A   Mostly Cloudy
9:55 PM 30.2 °F 20.8 °F 24.8 °F 80% 29.98 in 10.0 mi SE 11.5 mph - N/A   Mostly Cloudy
10:15 PM 30.2 °F 21.9 °F 24.8 °F 80% 29.98 in 10.0 mi SE 9.2 mph - N/A   Overcast
10:35 PM 30.2 °F 21.3 °F 24.8 °F 80% 29.99 in 10.0 mi SE 10.4 mph - N/A   Overcast
10:55 PM 30.2 °F 21.3 °F 24.8 °F 80% 29.99 in 10.0 mi SE 10.4 mph - N/A   Overcast
11:15 PM 30.2 °F 22.6 °F 24.8 °F 80% 29.99 in 10.0 mi SSE 8.1 mph - N/A   Overcast
11:35 PM 30.2 °F 22.6 °F 24.8 °F 80% 29.99 in 10.0 mi SE 8.1 mph - N/A   Overcast
11:55 PM 30.2 °F 23.4 °F 24.8 °F 80% 29.99 in 10.0 mi SE 6.9 mph - N/A   Overcast